Hauptseite
METAR-TAF:

METAR-TAF

Flughäfen :

Germiston, Südafrika

Breite: 26-14-33S, Länge: 028-09-04E, Höhe: 1671 m

Beobachtung

Neuester Wetterbericht von vor 4 Stunden und 56 Minuten, um 10:00 UTC
Wind 8 kt aus Ost
Temperatur 18°C
Luftfeuchtigkeit 22%
Luftdruck 1030 hPa
Sichtweite: 9000 m

METAR: FAGM 061000Z 09008KT 9000 NSC 18/M04 Q1030

Zeit: 16:56 (14:56 UTC)


TAF: fehlend

Wetterbeobachtungen und Prognosen von mehr als 4000 Flughäfen (METAR und TAF Bericht).

Die verfügbaren Stationen werden durch gelbe und rote Markierungen auf der Karte dargestellt.

Führen Sie die Maus auf sie, um den Namen der Station zu sehen.

Darauf klicken, um die Beobachtung von Wetterbeobachtungen und Prognosen zu sehen.

Um die Karte zu ändern : klicken Sie auf den grünen Tasten mit einem schwarzen Kreuz Zum Vergrößern, auf den grünen Button mit einem Gedankenstrich zu verkleinern, oder auf die grünen Pfeile für benachbarte Karten.


METAR-TAF: